| time (UTC) | temp F | wind direction | speed knots | gust knots | rain 1hr in | rain 24hr in | rain mn in | humidity % | barometer mb |
| 20260507031539 | 53 | 360 | 0.9 | 4.3 | 0.00 | 0.00 | 0.00 | 90 | 1008.2 |
| 20260507030035 | 54 | 360 | 0.9 | 2.6 | 0.00 | 0.00 | 0.00 | 91 | 1008.1 |
| 20260507024539 | 55 | 360 | 0.0 | 2.6 | 0.00 | 0.00 | 0.00 | 91 | 1008.0 |
| 20260507023037 | 55 | 360 | 0.0 | 1.7 | 0.00 | 0.00 | 0.00 | 92 | 1007.8 |
| 20260507021533 | 55 | 360 | 0.0 | 1.7 | 0.00 | 0.00 | 0.00 | 92 | 1007.8 |
| 20260507020030 | 56 | 360 | 0.0 | 2.6 | 0.00 | 0.00 | 0.00 | 92 | 1007.5 |
| 20260507014526 | 57 | 360 | 0.0 | 3.5 | 0.00 | 0.00 | 0.00 | 93 | 1007.3 |
| 20260507013025 | 57 | 360 | 0.0 | 0.9 | 0.00 | 0.00 | 0.00 | 93 | 1007.4 |
| 20260507011523 | 58 | 360 | 0.0 | 3.5 | 0.00 | 0.00 | 0.00 | 92 | 1006.9 |
| 20260507010025 | 60 | 360 | 0.9 | 4.3 | 0.00 | 0.00 | 0.00 | 93 | 1006.9 |
| 20260507004531 | 60 | 360 | 0.9 | 3.5 | 0.00 | 0.00 | 0.00 | 93 | 1006.1 |
| 20260507003021 | 60 | 360 | 0.9 | 7.8 | 0.00 | 0.00 | 0.00 | 93 | 1006.1 |
| 20260507001521 | 60 | 360 | 2.6 | 10.4 | 0.00 | 0.00 | 0.00 | 93 | 1006.2 |
| 20260507000020 | 60 | 360 | 1.7 | 4.3 | 0.00 | 0.00 | 0.00 | 93 | 1006.2 |
| 20260506234519 | 60 | 360 | 1.7 | 7.0 | 0.00 | 0.00 | 0.00 | 93 | 1005.9 |
| 20260506233019 | 60 | 360 | 1.7 | 7.8 | 0.00 | 0.00 | 0.00 | 93 | 1005.9 |
| 20260506231518 | 60 | 360 | 2.6 | 7.0 | 0.00 | 0.00 | 0.00 | 93 | 1005.8 |
| 20260506230017 | 60 | 360 | 0.9 | 7.0 | 0.00 | 0.00 | 0.00 | 93 | 1005.7 |
| 20260506224516 | 60 | 360 | 0.9 | 4.3 | 0.00 | 0.00 | 0.00 | 93 | 1005.6 |
| 20260506223017 | 60 | 360 | 0.9 | 4.3 | 0.00 | 0.00 | 0.00 | 93 | 1005.6 |
| 20260506221515 | 60 | 360 | 1.7 | 8.7 | 0.00 | 0.00 | 0.00 | 92 | 1005.6 |
| 20260506220029 | 60 | 360 | 1.7 | 5.2 | 0.00 | 0.00 | 0.00 | 92 | 1005.6 |
| 20260506214513 | 60 | 360 | 1.7 | 7.0 | 0.00 | 0.00 | 0.00 | 92 | 1005.6 |
| 20260506213012 | 60 | 360 | 2.6 | 9.6 | 0.00 | 0.00 | 0.00 | 92 | 1005.7 |
| 20260506211511 | 60 | 360 | 2.6 | 9.6 | 0.00 | 0.00 | 0.00 | 92 | 1005.8 |
| 20260506210013 | 60 | 360 | 1.7 | 8.7 | 0.00 | 0.00 | 0.00 | 91 | 1005.7 |
| 20260506204509 | 60 | 360 | 2.6 | 5.2 | 0.00 | 0.00 | 0.00 | 91 | 1005.9 |
| 20260506203015 | 60 | 360 | 1.7 | 4.3 | 0.00 | 0.00 | 0.00 | 91 | 1006.0 |
| 20260506201507 | 60 | 360 | 1.7 | 8.7 | 0.00 | 0.00 | 0.00 | 90 | 1005.9 |
| 20260506200004 | 60 | 360 | 3.5 | 9.6 | 0.00 | 0.00 | 0.00 | 90 | 1006.1 |
| 20260506194503 | 61 | 360 | 1.7 | 4.3 | 0.00 | 0.00 | 0.00 | 89 | 1006.2 |
| 20260506193000 | 61 | 360 | 2.6 | 7.8 | 0.00 | 0.00 | 0.00 | 89 | 1006.7 |
| 20260506191609 | 61 | 360 | 1.7 | 7.8 | 0.00 | 0.00 | 0.00 | 89 | 1006.8 |
| 20260506190059 | 61 | 360 | 3.5 | 11.3 | 0.00 | 0.00 | 0.00 | 88 | 1006.7 |
| 20260506184558 | 61 | 360 | 4.3 | 9.6 | 0.00 | 0.00 | 0.00 | 88 | 1006.8 |
| 20260506183113 | 62 | 360 | 2.6 | 7.8 | 0.00 | 0.00 | 0.00 | 88 | 1006.7 |
| 20260506181601 | 62 | 360 | 1.7 | 9.6 | 0.00 | 0.00 | 0.00 | 87 | 1006.9 |
| 20260506180113 | 62 | 360 | 2.6 | 8.7 | 0.00 | 0.00 | 0.00 | 86 | 1006.7 |
| 20260506174553 | 63 | 360 | 2.6 | 8.7 | 0.00 | 0.00 | 0.00 | 84 | 1006.9 |
| 20260506173119 | 64 | 360 | 4.3 | 11.3 | 0.00 | 0.00 | 0.00 | 81 | 1007.4 |
| 20260506171552 | 65 | 360 | 2.6 | 10.4 | 0.00 | 0.00 | 0.00 | 78 | 1007.8 |
| 20260506170050 | 66 | 360 | 3.5 | 12.2 | 0.00 | 0.00 | 0.00 | 75 | 1008.0 |
| 20260506164550 | 68 | 360 | 3.5 | 11.3 | 0.00 | 0.00 | 0.00 | 73 | 1007.7 |
| 20260506163055 | 69 | 360 | 0.0 | 7.8 | 0.00 | 0.00 | 0.00 | 70 | 1007.4 |
| 20260506161554 | 70 | 360 | 1.7 | 9.6 | 0.00 | 0.00 | 0.00 | 69 | 1007.4 |
| 20260506160045 | 69 | 360 | 1.7 | 5.2 | 0.00 | 0.00 | 0.00 | 71 | 1007.9 |
| 20260506154540 | 68 | 360 | 2.6 | 10.4 | 0.00 | 0.00 | 0.00 | 71 | 1008.1 |
| 20260506153039 | 68 | 360 | 5.2 | 10.4 | 0.00 | 0.00 | 0.00 | 71 | 1008.2 |
| 20260506151536 | 68 | 360 | 1.7 | 8.7 | 0.00 | 0.00 | 0.00 | 73 | 1008.4 |
| 20260506150032 | 67 | 360 | 4.3 | 8.7 | 0.00 | 0.00 | 0.00 | 74 | 1008.6 |
| 20260506144528 | 66 | 360 | 0.0 | 8.7 | 0.00 | 0.00 | 0.00 | 76 | 1008.7 |
| 20260506143030 | 65 | 360 | 2.6 | 8.7 | 0.00 | 0.00 | 0.00 | 76 | 1008.8 |
| 20260506141533 | 65 | 360 | 1.7 | 8.7 | 0.00 | 0.00 | 0.00 | 77 | 1009.0 |
| 20260506140025 | 65 | 360 | 1.7 | 4.3 | 0.00 | 0.00 | 0.00 | 77 | 1009.0 |
| 20260506134522 | 64 | 360 | 1.7 | 9.6 | 0.00 | 0.00 | 0.00 | 79 | 1008.8 |
| 20260506133019 | 63 | 360 | 3.5 | 11.3 | 0.00 | 0.00 | 0.00 | 80 | 1008.7 |
| 20260506131522 | 62 | 360 | 1.7 | 8.7 | 0.00 | 0.00 | 0.00 | 81 | 1008.9 |
| 20260506130018 | 62 | 360 | 2.6 | 10.4 | 0.00 | 0.00 | 0.00 | 81 | 1009.0 |
| 20260506124515 | 62 | 360 | 1.7 | 7.8 | 0.00 | 0.00 | 0.00 | 82 | 1009.1 |
| 20260506123015 | 61 | 360 | 0.9 | 9.6 | 0.00 | 0.00 | 0.00 | 82 | 1009.2 |
| 20260506121513 | 61 | 360 | 2.6 | 10.4 | 0.00 | 0.00 | 0.00 | 82 | 1009.3 |
| 20260506120022 | 61 | 360 | 1.7 | 7.8 | 0.00 | 0.00 | 0.00 | 82 | 1009.4 |
| 20260506114512 | 61 | 360 | 1.7 | 7.0 | 0.00 | 0.00 | 0.00 | 83 | 1009.3 |
| 20260506113012 | 60 | 360 | 1.7 | 7.8 | 0.00 | 0.00 | 0.00 | 83 | 1009.4 |
| 20260506111511 | 60 | 360 | 1.7 | 7.0 | 0.00 | 0.00 | 0.00 | 85 | 1009.2 |
| 20260506110008 | 59 | 360 | 0.9 | 7.0 | 0.00 | 0.00 | 0.00 | 85 | 1009.7 |
| 20260506104505 | 58 | 360 | 0.9 | 4.3 | 0.00 | 0.00 | 0.00 | 85 | 1009.6 |
| 20260506103004 | 58 | 360 | 0.9 | 5.2 | 0.00 | 0.00 | 0.00 | 85 | 1009.6 |
| 20260506101502 | 58 | 360 | 0.9 | 7.8 | 0.00 | 0.00 | 0.00 | 85 | 1009.4 |
| 20260506100105 | 58 | 360 | 0.9 | 3.5 | 0.00 | 0.00 | 0.00 | 85 | 1009.2 |
| 20260506094612 | 58 | 360 | 0.9 | 3.5 | 0.00 | 0.00 | 0.00 | 84 | 1009.3 |
| 20260506093055 | 58 | 360 | 0.9 | 4.3 | 0.00 | 0.00 | 0.00 | 84 | 1009.3 |
| 20260506091554 | 59 | 360 | 1.7 | 5.2 | 0.00 | 0.00 | 0.00 | 83 | 1009.3 |
| 20260506090053 | 59 | 360 | 0.9 | 4.3 | 0.00 | 0.00 | 0.00 | 83 | 1009.3 |
| 20260506084556 | 59 | 360 | 0.9 | 4.3 | 0.00 | 0.00 | 0.00 | 82 | 1009.3 |
| 20260506083057 | 59 | 360 | 1.7 | 7.0 | 0.00 | 0.00 | 0.00 | 82 | 1009.6 |
| 20260506081550 | 59 | 360 | 0.9 | 3.5 | 0.00 | 0.00 | 0.00 | 82 | 1009.4 |
| 20260506080103 | 59 | 360 | 0.9 | 2.6 | 0.00 | 0.00 | 0.00 | 81 | 1009.4 |
| 20260506073055 | 60 | 360 | 0.0 | 5.2 | 0.00 | 0.00 | 0.00 | 80 | 1009.4 |
| 20260506071543 | 61 | 360 | 0.9 | 3.5 | 0.00 | 0.00 | 0.00 | 79 | 1009.3 |
| 20260506061536 | 62 | 360 | 1.7 | 5.2 | 0.00 | 0.00 | 0.00 | 76 | 1008.9 |
| 20260506044535 | 63 | 360 | 1.7 | 8.7 | 0.00 | 0.00 | 0.00 | 71 | 1009.2 |
| 20260506043025 | 63 | 360 | 2.6 | 7.8 | 0.00 | 0.00 | 0.00 | 70 | 1009.1 |
| 20260506041532 | 63 | 360 | 3.5 | 7.0 | 0.00 | 0.00 | 0.00 | 70 | 1009.3 |
| 20260506040021 | 64 | 360 | 2.6 | 10.4 | 0.00 | 0.00 | 0.00 | 69 | 1009.3 |
| 20260506034520 | 63 | 360 | 0.9 | 7.8 | 0.00 | 0.00 | 0.00 | 69 | 1009.2 |
| 20260506033020 | 63 | 360 | 2.6 | 7.0 | 0.00 | 0.00 | 0.00 | 69 | 1009.4 |